Location: Errabaliem
(16.8108°N, 80.4255°E)
Time: 00:02:10
(UTC+00:00)

NATO 3D Rocket - Pass Details

Date: 05 August 2024
Orbit: 670 x 2293 km, 21.5° (Epoch: 18 September)

Event Time Altitude Azimuth Distance (km) Brightness Sun altitude
Exits shadow 22:24:40 47° 344° (NNW) 883 3.8 -26.2°
Maximum altitude 22:25:05 48° 1° (N) 866 3.9 -26.1°
Drops below altitude 10° 22:29:44 10° 77° (ENE) 2,148 6.8 -25.2°
Sets 22:32:20 0° 83° (E) 3,166 7.8 -24.6°
